If you wish to contribute or participate in the discussions about articles you are invited to join SKYbrary as a registered user

 Actions

Albury Airport

From SKYbrary Wiki

YMAY
Airport
ICAO: YMAY – IATA: ABX
Summary
Name Albury Airport
Region Asia and Pacific
Territory Australia AU.gif
Location , New South Wales
Serving Albury
Elevation 164.287 m
539 ft
539 ft164.287 m
Type medium airport
Coordinates 36° 4' 4.01" S, 146° 57' 29.02" E
Runways
Designator Length Width Surface ROPS
7/25 1900 m6,233.596 ft
30 m98.425 ft
ASP /


METAR
Observation YMAY 182111Z AUTO 29003KT 7000 // SCT007 BKN013 00/M01 Q1024
Station Albury Airport
Date/Time 18 June 2019 21:11:00
Wind direction 290°
Wind speed 03 kts
Lowest cloud amount scattered clouds
Temperature 0°C
Dew point
Humidity 92%
QNH 1024 hPa
Weather condition n/a